Location: Unspecified
(43.3116°N, 2.0147°W)
Time: 21:35:07
(UTC+02:00)

Cosmos 1674 - Visible Passes

Search period start: 24 July 2024 00:00
Search period end: 03 August 2024 00:00
Orbit: 430 x 448 km, 82.5° (Epoch: 24 July)

Date Brightness Start Highest point End Pass type
(mag) Time Alt. Az. Time Alt. Az. Time Alt. Az.
24 Jul 5.2 03:10:25 10° NE 03:11:41 12° ENE 03:12:25 11° E visible
24 Jul 3.1 04:42:52 10° NNW 04:45:49 37° W 04:45:49 37° W visible
25 Jul 2.6 04:03:47 10° N 04:06:48 66° NNE 04:06:48 66° NNE visible
26 Jul 4.2 03:25:09 10° NNE 03:27:46 27° ENE 03:27:46 27° ENE visible
26 Jul 4.6 05:00:01 10° NW 05:01:10 14° WNW 05:01:10 14° WNW visible
27 Jul 5.3 02:47:27 10° NE 02:48:42 12° ENE 02:48:42 12° ENE visible
27 Jul 3.8 04:20:02 10° NNW 04:22:06 28° NW 04:22:06 28° NW visible
28 Jul 3.7 03:40:46 10° N 03:43:01 38° N 03:43:01 38° N visible
29 Jul 4.6 03:01:58 10° NNE 03:03:53 23° NE 03:03:53 23° NE visible
29 Jul 4.9 04:36:53 10° NW 04:37:17 11° WNW 04:37:17 11° WNW visible
30 Jul 5.4 02:24:04 10° NE 02:24:44 12° NE 02:24:44 12° NE visible
30 Jul 4.5 03:56:43 10° NNW 03:58:07 21° NW 03:58:07 21° NW visible
31 Jul 4.5 03:17:17 10° N 03:18:56 26° N 03:18:56 26° N visible
01 Aug 5.0 02:38:19 10° NNE 02:39:42 19° NNE 02:39:42 19° NNE visible
02 Aug 5.5 02:00:14 10° NE 02:00:26 11° NE 02:00:26 11° NE visible
02 Aug 4.9 03:32:54 10° NNW 03:33:49 16° NW 03:33:49 16° NW visible
